Location: Unspecified
(0.0000°N, 0.0000°E)
Time: 11:57:37
(UTC+00:00)

MIDAS 4 DEB - Visible Passes

Search period start: 11 November 2024 00:00
Search period end: 21 November 2024 00:00
Orbit: 2781 x 4418 km, 95.9° (Epoch: 08 October)

Date Brightness Start Highest point End Pass type
(mag) Time Alt. Az. Time Alt. Az. Time Alt. Az.
11 Nov ? 22:07:06 45° SSW 22:07:06 45° SSW 22:16:06 10° SSW visible
12 Nov ? 20:09:40 23° ESE 20:09:40 23° ESE 20:17:24 10° SSE visible
12 Nov ? 22:54:58 32° SW 22:54:58 32° SW 23:02:20 10° SSW visible
13 Nov ? 20:57:32 41° SE 20:57:32 41° SE 21:07:40 10° S visible
13 Nov ? 23:42:51 16° WSW 23:42:51 16° WSW 23:46:06 10° SW visible
14 Nov ? 21:45:24 53° S 21:45:24 53° S 21:55:51 10° S visible
15 Nov ? 19:47:56 20° ESE 19:47:56 20° ESE 19:56:00 10° SSE visible
15 Nov ? 22:33:15 40° SW 22:33:15 40° SW 22:42:28 10° SSW visible
16 Nov ? 20:35:47 40° SE 20:35:47 40° SE 20:46:59 10° S visible
16 Nov ? 23:21:06 22° WSW 23:21:06 22° WSW 23:26:56 10° SW visible
17 Nov ? 21:23:37 60° SSE 21:23:37 60° SSE 21:35:33 10° S visible
18 Nov ? 19:26:08 17° ESE 19:26:08 17° ESE 19:34:17 10° SE visible
18 Nov ? 22:11:27 51° SW 22:11:27 51° SW 22:22:31 10° SSW visible
19 Nov ? 20:13:57 37° ESE 20:13:57 37° ESE 20:26:13 10° SSE visible
19 Nov ? 22:59:16 29° WSW 22:59:16 29° WSW 23:07:32 10° SW visible
20 Nov ? 21:01:45 64° SE 21:01:45 64° SE 21:15:11 10° S visible
20 Nov ? 23:47:04 11° W 23:47:04 11° W 23:48:21 10° WSW visible
